,,,PA_Meas_PMT16A,,PR_Meas_QMR101_102,,RH_Meas_QMH101,,SR_Meas_QMS101,,TA_Meas_QMH101,,GenWind,,GenWind,
date,time,status,PA,status,PR,status,RH,status,SR,status,TA,status,DirAvg,status,SpdAvg,
2012-05-18, 00:00:04,VALID,1000.23,VALID,0,VALID,91.1206,VALID,0,VALID,24.3647,VALID,71,VALID,0.489844,
2012-05-18, 00:01:04,VALID,1000.17,VALID,0,VALID,91.235,VALID,0,VALID,24.3452,VALID,71,VALID,0.403906,
2012-05-18, 00:02:04,VALID,1000.18,VALID,0,VALID,91.2579,VALID,0,VALID,24.3257,VALID,71,VALID,0.340625,
2012-05-18, 00:03:04,VALID,1000.13,VALID,0,VALID,91.3494,VALID,0,VALID,24.3062,VALID,71,VALID,0.178516,
2012-05-18, 00:04:04,VALID,1000.13,VALID,0,VALID,91.4181,VALID,0,VALID,24.2866,VALID,71,VALID,0.0195313,
2012-05-18, 00:05:04,VALID,1000.1,VALID,0,VALID,91.4486,VALID,0,VALID,24.2476,VALID,71,VALID,0,
2012-05-18, 00:06:04,VALID,1000.08,VALID,0,VALID,91.5478,VALID,0,VALID,24.2067,VALID,71,VALID,0.0695312,
2012-05-18, 00:07:04,VALID,1000.04,VALID,0,VALID,91.6546,VALID,0,VALID,24.2281,VALID,71,VALID,0.150391,
2012-05-18, 00:08:04,VALID,1000.04,VALID,0,VALID,91.7385,VALID,0,VALID,24.2086,VALID,71,VALID,0.000390625,
2012-05-18, 00:09:04,VALID,1000.03,VALID,0,VALID,91.7538,VALID,0,VALID,24.1891,VALID,75,VALID,0.600391,
2012-05-18, 00:10:04,VALID,999.99,VALID,0,VALID,91.6012,VALID,0,VALID,24.2281,VALID,77,VALID,0.533594,
2012-05-18, 00:11:04,VALID,999.952,VALID,0,VALID,91.4181,VALID,0,VALID,24.2476,VALID,81,VALID,0.501172,
2012-05-18, 00:12:04,VALID,999.956,VALID,0,VALID,91.2426,VALID,0,VALID,24.2671,VALID,84,VALID,0.417969,
2012-05-18, 00:13:04,VALID,999.943,VALID,0,VALID,91.174,VALID,0,VALID,24.2671,VALID,87,VALID,0.474219,
2012-05-18, 00:14:04,VALID,999.937,VALID,0,VALID,91.1358,VALID,0,VALID,24.2671,VALID,89,VALID,0.168359,
2012-05-18, 00:15:04,VALID,999.95,VALID,0,VALID,91.1434,VALID,0,VALID,24.2671,VALID,89,VALID,0,
2012-05-18, 00:16:04,VALID,999.967,VALID,0,VALID,91.1892,VALID,0,VALID,24.2263,VALID,89,VALID,0,
2012-05-18, 00:17:04,VALID,999.924,VALID,0,VALID,91.2655,VALID,0,VALID,24.2281,VALID,89,VALID,0.139062,
2012-05-18, 00:18:04,VALID,999.906,VALID,0,VALID,91.3723,VALID,0,VALID,24.2281,VALID,89,VALID,0.230078,
2012-05-18, 00:19:04,VALID,999.902,VALID,0,VALID,91.3952,VALID,0,VALID,24.2086,VALID,89,VALID,0,
2012-05-18, 00:20:04,VALID,999.881,VALID,0,VALID,91.4334,VALID,0,VALID,24.2086,VALID,89,VALID,0.0222656,
2012-05-18, 00:21:04,VALID,999.869,VALID,0,VALID,91.5097,VALID,0,VALID,24.1891,VALID,89,VALID,0.0226563,
2012-05-18, 00:22:04,VALID,999.834,VALID,0,VALID,91.6317,VALID,0,VALID,24.1677,VALID,89,VALID,0.357031,
2012-05-18, 00:23:04,VALID,999.837,VALID,0,VALID,91.6241,VALID,0,VALID,24.1696,VALID,104,VALID,0.667578,
2012-05-18, 00:24:04,VALID,999.786,VALID,0,VALID,91.6088,VALID,0,VALID,24.1891,VALID,118,VALID,0.795313,
2012-05-18, 00:25:04,VALID,999.802,VALID,0,VALID,91.4944,VALID,0,VALID,24.2281,VALID,132,VALID,0.827734,
2012-05-18, 00:26:04,VALID,999.786,VALID,0,VALID,91.1968,VALID,0,VALID,24.2671,VALID,132,VALID,0.646484,
2012-05-18, 00:27:04,VALID,999.766,VALID,0,VALID,91.0061,VALID,0,VALID,24.3062,VALID,155,VALID,0.583984,
2012-05-18, 00:28:04,VALID,999.75,VALID,0,VALID,90.5712,VALID,0,VALID,24.3043,VALID,153,VALID,1.23203,
2012-05-18, 00:29:04,VALID,999.729,VALID,0,VALID,90.3118,VALID,0,VALID,24.3647,VALID,142,VALID,0.786719,
2012-05-18, 00:30:04,VALID,999.721,VALID,0,VALID,90.1058,VALID,0,VALID,24.3842,VALID,144,VALID,0.825,
2012-05-18, 00:31:04,VALID,999.711,VALID,0,VALID,90.0219,VALID,0,VALID,24.3824,VALID,132,VALID,0.99375,
2012-05-18, 00:32:04,VALID,999.682,VALID,0,VALID,89.8769,VALID,0,VALID,24.4233,VALID,148,VALID,0.716797,
2012-05-18, 00:33:04,VALID,999.663,VALID,0,VALID,89.7549,VALID,0,VALID,24.4037,VALID,138,VALID,1.04766,
2012-05-18, 00:34:04,VALID,999.624,VALID,0,VALID,89.7472,VALID,0,VALID,24.3824,VALID,136,VALID,0.840234,
2012-05-18, 00:35:04,VALID,999.628,VALID,0,VALID,89.7625,VALID,0,VALID,24.3824,VALID,136,VALID,0.760156,
2012-05-18, 00:36:04,VALID,999.587,VALID,0,VALID,89.7549,VALID,0,VALID,24.3842,VALID,136,VALID,0.675391,
2012-05-18, 00:37:04,VALID,999.589,VALID,0,VALID,89.6709,VALID,0,VALID,24.3647,VALID,125,VALID,0.829297,
2012-05-18, 00:38:04,VALID,999.558,VALID,0,VALID,89.6786,VALID,0,VALID,24.3433,VALID,125,VALID,0.582812,
2012-05-18, 00:39:04,VALID,999.522,VALID,0,VALID,89.7472,VALID,0,VALID,24.3452,VALID,105,VALID,0.628125,
2012-05-18, 00:40:04,VALID,999.494,VALID,0,VALID,89.6328,VALID,0,VALID,24.3257,VALID,104,VALID,0.8625,
2012-05-18, 00:41:04,VALID,999.443,VALID,0,VALID,89.6633,VALID,0,VALID,24.3062,VALID,100,VALID,0.637891,
2012-05-18, 00:42:04,VALID,999.428,VALID,0,VALID,89.9456,VALID,0,VALID,24.2653,VALID,99,VALID,0.697656,
2012-05-18, 00:43:04,VALID,999.446,VALID,0,VALID,90.0982,VALID,0,VALID,24.2866,VALID,99,VALID,0.558984,
2012-05-18, 00:44:04,VALID,999.465,VALID,0,VALID,90.2126,VALID,0,VALID,24.2476,VALID,99,VALID,0.262109,
2012-05-18, 00:45:04,VALID,999.43,VALID,0,VALID,90.3576,VALID,0,VALID,24.2086,VALID,99,VALID,0.277344,
2012-05-18, 00:46:04,VALID,999.422,VALID,0,VALID,90.4949,VALID,0,VALID,24.1677,VALID,99,VALID,0.105078,
2012-05-18, 00:47:04,VALID,999.424,VALID,0,VALID,90.762,VALID,0,VALID,24.1891,VALID,80,VALID,0.324609,
2012-05-18, 00:48:04,VALID,999.433,VALID,0,VALID,90.9298,VALID,0,VALID,24.1891,VALID,80,VALID,0.318359,
2012-05-18, 00:49:04,VALID,999.406,VALID,0,VALID,90.9985,VALID,0,VALID,24.1696,VALID,80,VALID,0.247656,
2012-05-18, 00:50:04,VALID,999.438,VALID,0,VALID,90.9222,VALID,0,VALID,24.1696,VALID,80,VALID,0,
2012-05-18, 00:51:04,VALID,999.455,VALID,0,VALID,90.8993,VALID,0,VALID,24.1305,VALID,80,VALID,0.172266,
2012-05-18, 00:52:04,VALID,999.476,VALID,0,VALID,91.0443,VALID,0,VALID,24.111,VALID,80,VALID,0.40625,
2012-05-18, 00:53:04,VALID,999.431,VALID,0,VALID,91.09,VALID,0,VALID,24.0525,VALID,80,VALID,0.222656,
2012-05-18, 00:54:04,VALID,999.455,VALID,0,VALID,91.2731,VALID,0,VALID,24.0525,VALID,80,VALID,0.235547,
2012-05-18, 00:55:04,VALID,999.472,VALID,0,VALID,91.3037,VALID,0,VALID,24.0525,VALID,80,VALID,0.183984,
2012-05-18, 00:56:04,VALID,999.442,VALID,0,VALID,91.4639,VALID,0,VALID,24.0329,VALID,80,VALID,0.355078,
2012-05-18, 00:57:04,VALID,999.436,VALID,0,VALID,91.7538,VALID,0,VALID,24.0329,VALID,80,VALID,0.521484,
2012-05-18, 00:58:04,VALID,999.454,VALID,0,VALID,91.8835,VALID,0,VALID,24.0116,VALID,79,VALID,0.426172,
2012-05-18, 00:59:04,VALID,999.418,VALID,0,VALID,91.8759,VALID,0,VALID,24.0329,VALID,79,VALID,0.459375,
2012-05-18, 01:00:04,VALID,999.411,VALID,0,VALID,91.8759,VALID,0,VALID,24.0134,VALID,79,VALID,0.324219,
2012-05-18, 01:01:04,VALID,999.414,VALID,0,VALID,91.8301,VALID,0,VALID,24.0134,VALID,79,VALID,0.409375,
2012-05-18, 01:02:04,VALID,999.395,VALID,0,VALID,91.9674,VALID,0,VALID,24.0329,VALID,79,VALID,0.528125,
2012-05-18, 01:03:04,VALID,999.387,VALID,0,VALID,92.1582,VALID,0,VALID,24.0525,VALID,79,VALID,0.534375,
2012-05-18, 01:04:04,VALID,999.346,VALID,0,VALID,92.0743,VALID,0,VALID,24.0311,VALID,79,VALID,0.575391,
2012-05-18, 01:05:04,VALID,999.339,VALID,0,VALID,92.1734,VALID,0,VALID,24.0525,VALID,79,VALID,0.486328,
2012-05-18, 01:06:04,VALID,999.37,VALID,0,VALID,92.2879,VALID,0,VALID,24.0525,VALID,79,VALID,0.369531,
2012-05-18, 01:07:04,VALID,999.319,VALID,0,VALID,92.4023,VALID,0,VALID,24.0329,VALID,79,VALID,0.328125,
2012-05-18, 01:08:04,VALID,999.285,VALID,0,VALID,92.532,VALID,0,VALID,24.0329,VALID,79,VALID,0.553125,
2012-05-18, 01:09:04,VALID,999.26,VALID,0,VALID,92.7991,VALID,0,VALID,24.0134,VALID,79,VALID,0.526172,
2012-05-18, 01:10:04,VALID,999.245,VALID,0,VALID,92.9745,VALID,0,VALID,24.0543,VALID,79,VALID,0.510547,
2012-05-18, 01:11:04,VALID,999.249,VALID,0,VALID,93.0051,VALID,0,VALID,23.9939,VALID,79,VALID,0.433984,
2012-05-18, 01:12:04,VALID,999.25,VALID,0,VALID,93.028,VALID,0,VALID,23.9549,VALID,79,VALID,0.271094,
2012-05-18, 01:13:04,VALID,999.26,VALID,0,VALID,92.9364,VALID,0,VALID,23.9354,VALID,79,VALID,0.0914062,
2012-05-18, 01:14:04,VALID,999.286,VALID,0,VALID,92.883,VALID,0,VALID,23.9159,VALID,79,VALID,0,
2012-05-18, 01:15:04,VALID,999.242,VALID,0,VALID,93.0814,VALID,0,VALID,23.8963,VALID,79,VALID,0.414453,
2012-05-18, 01:16:04,VALID,999.245,VALID,0,VALID,93.234,VALID,0,VALID,23.8768,VALID,79,VALID,0.538672,
2012-05-18, 01:17:04,VALID,999.269,VALID,0,VALID,93.2645,VALID,0,VALID,23.8591,VALID,21,VALID,0.801172,
2012-05-18, 01:18:04,VALID,999.261,VALID,0,VALID,93.3331,VALID,0,VALID,23.7988,VALID,21,VALID,0.709766,
2012-05-18, 01:19:04,VALID,999.253,VALID,0,VALID,93.4323,VALID,0,VALID,23.7402,VALID,21,VALID,0.555078,
2012-05-18, 01:20:04,VALID,999.277,VALID,0,VALID,93.6002,VALID,0,VALID,23.7207,VALID,21,VALID,0.583594,
2012-05-18, 01:21:04,VALID,999.248,VALID,0,VALID,93.8062,VALID,0,VALID,23.7225,VALID,21,VALID,0.391406,
2012-05-18, 01:22:04,VALID,999.267,VALID,0,VALID,94.0045,VALID,0,VALID,23.7012,VALID,21,VALID,0.398828,
2012-05-18, 01:23:04,VALID,999.256,VALID,0,VALID,94.1419,VALID,0,VALID,23.6817,VALID,21,VALID,0.307031,
2012-05-18, 01:24:04,VALID,999.262,VALID,0,VALID,94.2258,VALID,0,VALID,23.6622,VALID,21,VALID,0.380469,
2012-05-18, 01:25:04,VALID,999.25,VALID,0,VALID,94.3097,VALID,0,VALID,23.664,VALID,21,VALID,0.473828,
2012-05-18, 01:26:04,VALID,999.267,VALID,0,VALID,94.4242,VALID,0,VALID,23.6427,VALID,21,VALID,0.396094,
2012-05-18, 01:27:04,VALID,999.251,VALID,0,VALID,94.4928,VALID,0,VALID,23.6232,VALID,21,VALID,0.402344,
2012-05-18, 01:28:04,VALID,999.292,VALID,0,VALID,94.531,VALID,0,VALID,23.5841,VALID,21,VALID,0.367969,
2012-05-18, 01:29:04,VALID,999.299,VALID,0,VALID,94.5768,VALID,0,VALID,23.5646,VALID,21,VALID,0.349609,
2012-05-18, 01:30:04,VALID,999.311,VALID,0,VALID,94.676,VALID,0,VALID,23.5451,VALID,21,VALID,0.376563,
2012-05-18, 01:31:04,VALID,999.289,VALID,0,VALID,94.7675,VALID,0,VALID,23.5451,VALID,21,VALID,0.369922,
2012-05-18, 01:32:04,VALID,999.27,VALID,0,VALID,94.8667,VALID,0,VALID,23.5646,VALID,21,VALID,0.102344,
2012-05-18, 01:33:04,VALID,999.267,VALID,0,VALID,94.9125,VALID,0,VALID,23.5646,VALID,21,VALID,0,
2012-05-18, 01:34:04,VALID,999.25,VALID,0,VALID,94.9277,VALID,0,VALID,23.5646,VALID,21,VALID,0,
2012-05-18, 01:35:04,VALID,999.241,VALID,0,VALID,94.9735,VALID,0,VALID,23.5646,VALID,21,VALID,0,
2012-05-18, 01:36:04,VALID,999.235,VALID,0,VALID,94.9659,VALID,0,VALID,23.5664,VALID,21,VALID,0,
2012-05-18, 01:37:04,VALID,999.25,VALID,0,VALID,94.9888,VALID,0,VALID,23.5646,VALID,21,VALID,0,
2012-05-18, 01:38:04,VALID,999.215,VALID,0,VALID,95.0193,VALID,0,VALID,23.5646,VALID,21,VALID,0,
2012-05-18, 01:39:04,VALID,999.235,VALID,0,VALID,95.0345,VALID,0,VALID,23.5841,VALID,21,VALID,0.0902344,
2012-05-18, 01:40:04,VALID,999.21,VALID,0,VALID,95.0269,VALID,0,VALID,23.5841,VALID,21,VALID,0.335547,
2012-05-18, 01:41:04,VALID,999.16,VALID,0,VALID,95.0345,VALID,0,VALID,23.5841,VALID,21,VALID,0.402344,
2012-05-18, 01:42:04,VALID,999.177,VALID,0,VALID,95.0422,VALID,0,VALID,23.5841,VALID,21,VALID,0.354297,
2012-05-18, 01:43:04,VALID,999.134,VALID,0,VALID,95.0269,VALID,0,VALID,23.5646,VALID,21,VALID,0.525,
2012-05-18, 01:44:04,VALID,999.139,VALID,0,VALID,94.9811,VALID,0,VALID,23.5646,VALID,21,VALID,0.529688,
2012-05-18, 01:45:04,VALID,999.16,VALID,0,VALID,94.9506,VALID,0,VALID,23.5256,VALID,21,VALID,0.526953,
2012-05-18, 01:46:04,VALID,999.166,VALID,0,VALID,94.9201,VALID,0,VALID,23.5061,VALID,21,VALID,0.553125,
2012-05-18, 01:47:04,VALID,999.183,VALID,0,VALID,94.9201,VALID,0,VALID,23.5061,VALID,21,VALID,0.55,
2012-05-18, 01:48:04,VALID,999.171,VALID,0,VALID,94.9506,VALID,0,VALID,23.5061,VALID,21,VALID,0.370703,
2012-05-18, 01:49:04,VALID,999.205,VALID,0,VALID,94.943,VALID,0,VALID,23.5061,VALID,21,VALID,0.451953,
2012-05-18, 01:50:04,VALID,999.231,VALID,0,VALID,94.9354,VALID,0,VALID,23.4671,VALID,21,VALID,0.417578,
2012-05-18, 01:51:04,VALID,999.226,VALID,0,VALID,94.8972,VALID,0,VALID,23.428,VALID,21,VALID,0.492969,
2012-05-18, 01:52:04,VALID,999.222,VALID,0,VALID,94.882,VALID,0,VALID,23.4085,VALID,21,VALID,0.442187,
2012-05-18, 01:53:04,VALID,999.227,VALID,0,VALID,94.882,VALID,0,VALID,23.35,VALID,21,VALID,0.453516,
2012-05-18, 01:54:04,VALID,999.232,VALID,0,VALID,94.8972,VALID,0,VALID,23.3305,VALID,21,VALID,0.490625,
2012-05-18, 01:55:04,VALID,999.237,VALID,0,VALID,94.9888,VALID,0,VALID,23.3305,VALID,21,VALID,0.492188,
2012-05-18, 01:56:04,VALID,999.288,VALID,0,VALID,95.088,VALID,0,VALID,23.3518,VALID,21,VALID,0.507031,
2012-05-18, 01:57:04,VALID,999.285,VALID,0,VALID,95.1643,VALID,0,VALID,23.3305,VALID,21,VALID,0.432422,
2012-05-18, 01:58:04,VALID,999.332,VALID,0,VALID,95.2329,VALID,0,VALID,23.3305,VALID,21,VALID,0.162109,
2012-05-18, 01:59:04,VALID,999.322,VALID,0,VALID,95.2558,VALID,0,VALID,23.311,VALID,21,VALID,0,
2012-05-18, 02:00:04,VALID,999.343,VALID,0,VALID,95.2787,VALID,0,VALID,23.2915,VALID,21,VALID,0,
2012-05-18, 02:01:04,VALID,999.333,VALID,0,VALID,95.3016,VALID,0,VALID,23.2719,VALID,21,VALID,0,
2012-05-18, 02:02:04,VALID,999.345,VALID,0,VALID,95.3168,VALID,0,VALID,23.2719,VALID,21,VALID,0,
2012-05-18, 02:03:04,VALID,999.363,VALID,0,VALID,95.3168,VALID,0,VALID,23.2719,VALID,21,VALID,0,
2012-05-18, 02:04:04,VALID,999.367,VALID,0,VALID,95.3474,VALID,0,VALID,23.2915,VALID,21,VALID,0.221875,
2012-05-18, 02:05:04,VALID,999.333,VALID,0,VALID,95.3703,VALID,0,VALID,23.311,VALID,21,VALID,0.223828,
2012-05-18, 02:06:04,VALID,999.334,VALID,0,VALID,95.4008,VALID,0,VALID,23.311,VALID,21,VALID,0.250781,
2012-05-18, 02:07:04,VALID,999.348,VALID,0,VALID,95.4313,VALID,0,VALID,23.3323,VALID,21,VALID,0.341797,
2012-05-18, 02:08:04,VALID,999.346,VALID,0,VALID,95.416,VALID,0,VALID,23.2524,VALID,50,VALID,0.476563,
2012-05-18, 02:09:04,VALID,999.315,VALID,0,VALID,95.4389,VALID,0,VALID,23.2329,VALID,43,VALID,0.542578,
2012-05-18, 02:10:04,VALID,999.335,VALID,0,VALID,95.4389,VALID,0,VALID,23.2719,VALID,43,VALID,0.707422,
2012-05-18, 02:11:04,VALID,999.349,VALID,0,VALID,95.4389,VALID,0,VALID,23.311,VALID,43,VALID,0.593359,
2012-05-18, 02:12:04,VALID,999.329,VALID,0,VALID,95.4389,VALID,0,VALID,23.3305,VALID,43,VALID,0.441797,
2012-05-18, 02:13:04,VALID,999.351,VALID,0,VALID,95.4389,VALID,0,VALID,23.2915,VALID,43,VALID,0.401172,
2012-05-18, 02:14:04,VALID,999.332,VALID,0,VALID,95.4313,VALID,0,VALID,23.2524,VALID,43,VALID,0.0722656,
2012-05-18, 02:15:04,VALID,999.344,VALID,0,VALID,95.3855,VALID,0,VALID,23.2524,VALID,43,VALID,0.192188,
2012-05-18, 02:16:04,VALID,999.316,VALID,0,VALID,95.3397,VALID,0,VALID,23.2134,VALID,43,VALID,0,
2012-05-18, 02:17:04,VALID,999.301,VALID,0,VALID,95.3092,VALID,0,VALID,23.1939,VALID,43,VALID,0.193359,
2012-05-18, 02:18:04,VALID,999.303,VALID,0,VALID,95.2482,VALID,0,VALID,23.1549,VALID,43,VALID,0.289063,
2012-05-18, 02:19:04,VALID,999.296,VALID,0,VALID,95.2482,VALID,0,VALID,23.2134,VALID,43,VALID,0.501953,
2012-05-18, 02:20:04,VALID,999.281,VALID,0,VALID,95.2482,VALID,0,VALID,23.2329,VALID,43,VALID,0.539453,
2012-05-18, 02:21:04,VALID,999.271,VALID,0,VALID,95.2711,VALID,0,VALID,23.2524,VALID,78,VALID,0.583594,
2012-05-18, 02:22:04,VALID,999.297,VALID,0,VALID,95.2863,VALID,0,VALID,23.2915,VALID,78,VALID,0.70625,
2012-05-18, 02:23:04,VALID,999.323,VALID,0,VALID,95.294,VALID,0,VALID,23.2915,VALID,78,VALID,0.710156,
2012-05-18, 02:24:04,VALID,999.292,VALID,0,VALID,95.2787,VALID,0,VALID,23.3305,VALID,78,VALID,0.612109,
2012-05-18, 02:25:04,VALID,999.312,VALID,0,VALID,95.2634,VALID,0,VALID,23.3305,VALID,78,VALID,0.628516,
2012-05-18, 02:26:04,VALID,999.33,VALID,0,VALID,95.2177,VALID,0,VALID,23.3305,VALID,78,VALID,0.699609,
2012-05-18, 02:27:04,VALID,999.349,VALID,0,VALID,95.1719,VALID,0,VALID,23.35,VALID,78,VALID,0.648047,
2012-05-18, 02:28:04,VALID,999.314,VALID,0,VALID,95.1261,VALID,0,VALID,23.35,VALID,78,VALID,0.566406,
2012-05-18, 02:29:04,VALID,999.365,VALID,0,VALID,95.0803,VALID,0,VALID,23.3908,VALID,78,VALID,0.582812,
2012-05-18, 02:30:04,VALID,999.342,VALID,0,VALID,95.0498,VALID,0,VALID,23.389,VALID,78,VALID,0.607031,
2012-05-18, 02:31:04,VALID,999.343,VALID,0,VALID,95.0345,VALID,0,VALID,23.4085,VALID,78,VALID,0.759375,
2012-05-18, 02:32:04,VALID,999.304,VALID,0,VALID,95.0193,VALID,0,VALID,23.4085,VALID,90,VALID,0.910547,
2012-05-18, 02:33:04,VALID,999.308,VALID,0,VALID,94.9811,VALID,0,VALID,23.389,VALID,96,VALID,1.07773,
2012-05-18, 02:34:04,VALID,999.317,VALID,0,VALID,94.9277,VALID,0,VALID,23.3695,VALID,105,VALID,0.989062,
2012-05-18, 02:35:04,VALID,999.309,VALID,0,VALID,94.8514,VALID,0,VALID,23.3305,VALID,111,VALID,0.969141,
2012-05-18, 02:36:04,VALID,999.32,VALID,0,VALID,94.7599,VALID,0,VALID,23.2719,VALID,119,VALID,0.933594,
2012-05-18, 02:37:04,VALID,999.364,VALID,0,VALID,94.7599,VALID,0,VALID,23.2915,VALID,121,VALID,1.24531,
2012-05-18, 02:38:04,VALID,999.369,VALID,0,VALID,94.8362,VALID,0,VALID,23.2915,VALID,118,VALID,1.23555,
2012-05-18, 02:39:04,VALID,999.385,VALID,0,VALID,94.8743,VALID,0,VALID,23.2719,VALID,120,VALID,1.03437,
2012-05-18, 02:40:04,VALID,999.349,VALID,0,VALID,94.9125,VALID,0,VALID,23.2719,VALID,123,VALID,1.02617,
2012-05-18, 02:41:04,VALID,999.32,VALID,0,VALID,94.9583,VALID,0,VALID,23.2719,VALID,128,VALID,1.025,
2012-05-18, 02:42:04,VALID,999.319,VALID,0,VALID,94.9811,VALID,0,VALID,23.2915,VALID,128,VALID,0.876172,
2012-05-18, 02:43:04,VALID,999.275,VALID,0,VALID,94.9964,VALID,0,VALID,23.311,VALID,128,VALID,0.549219,
2012-05-18, 02:44:04,VALID,999.297,VALID,0,VALID,94.9964,VALID,0,VALID,23.311,VALID,128,VALID,0.205469,
2012-05-18, 02:45:04,VALID,999.312,VALID,0,VALID,94.9506,VALID,0,VALID,23.3305,VALID,128,VALID,0.145313,
2012-05-18, 02:46:04,VALID,999.305,VALID,0,VALID,94.9354,VALID,0,VALID,23.35,VALID,128,VALID,0.362891,
2012-05-18, 02:47:04,VALID,999.355,VALID,0,VALID,94.9354,VALID,0,VALID,23.389,VALID,128,VALID,0.0175781,
2012-05-18, 02:48:04,VALID,999.381,VALID,0,VALID,94.8896,VALID,0,VALID,23.428,VALID,128,VALID,0.54375,
2012-05-18, 02:49:04,VALID,999.414,VALID,0,VALID,94.8438,VALID,0,VALID,23.4458,VALID,128,VALID,0.452734,
2012-05-18, 02:50:04,VALID,999.406,VALID,0,VALID,94.6378,VALID,0,VALID,23.4458,VALID,128,VALID,0.363672,
2012-05-18, 02:51:04,VALID,999.405,VALID,0,VALID,94.4623,VALID,0,VALID,23.4458,VALID,128,VALID,0.300781,
2012-05-18, 02:52:04,VALID,999.4,VALID,0,VALID,94.264,VALID,0,VALID,23.428,VALID,81,VALID,0.622656,
2012-05-18, 02:53:04,VALID,999.432,VALID,0,VALID,94.2258,VALID,0,VALID,23.428,VALID,80,VALID,0.519922,
2012-05-18, 02:54:04,VALID,999.444,VALID,0,VALID,94.1953,VALID,0,VALID,23.4475,VALID,80,VALID,0.561328,
2012-05-18, 02:55:04,VALID,999.433,VALID,0,VALID,94.1343,VALID,0,VALID,23.4671,VALID,80,VALID,0.602734,
2012-05-18, 02:56:04,VALID,999.431,VALID,0,VALID,93.9664,VALID,0,VALID,23.4475,VALID,47,VALID,0.671094,
2012-05-18, 02:57:04,VALID,999.446,VALID,0,VALID,93.7528,VALID,0,VALID,23.4085,VALID,19,VALID,0.875391,
2012-05-18, 02:58:04,VALID,999.439,VALID,0,VALID,93.6688,VALID,0,VALID,23.3695,VALID,19,VALID,0.757031,
2012-05-18, 02:59:04,VALID,999.459,VALID,0,VALID,93.6994,VALID,0,VALID,23.35,VALID,15,VALID,0.724219,
2012-05-18, 03:00:04,VALID,999.447,VALID,0,VALID,93.7375,VALID,0,VALID,23.35,VALID,15,VALID,0.7375,
2012-05-18, 03:01:04,VALID,999.465,VALID,0,VALID,93.852,VALID,0,VALID,23.3695,VALID,15,VALID,0.78125,
2012-05-18, 03:02:04,VALID,999.456,VALID,0,VALID,93.8138,VALID,0,VALID,23.3695,VALID,15,VALID,0.895312,
2012-05-18, 03:03:04,VALID,999.488,VALID,0,VALID,93.8138,VALID,0,VALID,23.4085,VALID,359,VALID,0.971484,
2012-05-18, 03:04:04,VALID,999.467,VALID,0,VALID,93.6688,VALID,0,VALID,23.4085,VALID,360,VALID,0.789063,
2012-05-18, 03:05:04,VALID,999.506,VALID,0,VALID,93.4018,VALID,0,VALID,23.4085,VALID,20,VALID,0.775,
2012-05-18, 03:06:04,VALID,999.505,VALID,0,VALID,93.3789,VALID,0,VALID,23.389,VALID,6,VALID,0.996875,
2012-05-18, 03:07:04,VALID,999.525,VALID,0,VALID,93.4476,VALID,0,VALID,23.4085,VALID,8,VALID,0.767187,
2012-05-18, 03:08:04,VALID,999.479,VALID,0,VALID,93.4323,VALID,0,VALID,23.3695,VALID,16,VALID,0.643359,
2012-05-18, 03:09:04,VALID,999.488,VALID,0,VALID,93.501,VALID,0,VALID,23.3305,VALID,43,VALID,1.28203,
2012-05-18, 03:10:04,VALID,999.484,VALID,0,VALID,93.7833,VALID,0,VALID,23.311,VALID,48,VALID,1.52344,
2012-05-18, 03:11:04,VALID,999.481,VALID,0,VALID,94.0198,VALID,0,VALID,23.2507,VALID,53,VALID,1.03789,
2012-05-18, 03:12:04,VALID,999.457,VALID,0,VALID,94.1724,VALID,0,VALID,23.2507,VALID,54,VALID,1.16484,
2012-05-18, 03:13:04,VALID,999.522,VALID,0,VALID,94.3021,VALID,0,VALID,23.2134,VALID,42,VALID,0.849609,
2012-05-18, 03:14:04,VALID,999.483,VALID,0,VALID,94.3326,VALID,0,VALID,23.1939,VALID,15,VALID,0.898438,
2012-05-18, 03:15:04,VALID,999.502,VALID,0,VALID,94.3937,VALID,0,VALID,23.1354,VALID,16,VALID,0.578516,
2012-05-18, 03:16:04,VALID,999.535,VALID,0,VALID,94.5081,VALID,0,VALID,23.1159,VALID,16,VALID,0.646484,
2012-05-18, 03:17:04,VALID,999.531,VALID,0,VALID,94.6073,VALID,0,VALID,23.0769,VALID,16,VALID,0.826172,
2012-05-18, 03:18:04,VALID,999.51,VALID,0,VALID,94.7141,VALID,0,VALID,23.0964,VALID,16,VALID,0.671094,
2012-05-18, 03:19:04,VALID,999.535,VALID,0,VALID,94.7751,VALID,0,VALID,23.0769,VALID,16,VALID,0.571094,
2012-05-18, 03:20:04,VALID,999.532,VALID,0,VALID,94.8057,VALID,0,VALID,23.0378,VALID,16,VALID,0.771875,
2012-05-18, 03:21:04,VALID,999.541,VALID,0,VALID,94.8591,VALID,0,VALID,23.0183,VALID,24,VALID,0.838672,
2012-05-18, 03:22:04,VALID,999.523,VALID,0,VALID,94.9201,VALID,0,VALID,22.9988,VALID,28,VALID,0.940625,
2012-05-18, 03:23:04,VALID,999.498,VALID,0,VALID,94.9583,VALID,0,VALID,22.9988,VALID,37,VALID,0.737891,
2012-05-18, 03:24:04,VALID,999.483,VALID,0,VALID,94.9735,VALID,0,VALID,22.9598,VALID,44,VALID,0.528125,
2012-05-18, 03:25:04,VALID,999.448,VALID,0,VALID,94.9811,VALID,0,VALID,22.9403,VALID,44,VALID,0.304688,
2012-05-18, 03:26:04,VALID,999.437,VALID,0,VALID,94.9888,VALID,0,VALID,22.9208,VALID,44,VALID,0,
2012-05-18, 03:27:04,VALID,999.43,VALID,0,VALID,95.0345,VALID,0,VALID,22.9403,VALID,44,VALID,0.36875,
2012-05-18, 03:28:04,VALID,999.386,VALID,0,VALID,95.0956,VALID,0,VALID,22.9598,VALID,44,VALID,0.378516,
2012-05-18, 03:29:04,VALID,999.411,VALID,0,VALID,95.1414,VALID,0,VALID,22.9403,VALID,44,VALID,0,
2012-05-18, 03:30:04,VALID,999.362,VALID,0,VALID,95.1414,VALID,0,VALID,22.9598,VALID,44,VALID,0.00078125,
2012-05-18, 03:31:04,VALID,999.373,VALID,0,VALID,95.1871,VALID,0,VALID,22.9598,VALID,44,VALID,0.00195313,
2012-05-18, 03:32:04,VALID,999.385,VALID,0,VALID,95.21,VALID,0,VALID,22.9598,VALID,44,VALID,0.473437,
2012-05-18, 03:33:04,VALID,999.388,VALID,0,VALID,95.1948,VALID,0,VALID,22.9793,VALID,57,VALID,0.688281,
2012-05-18, 03:34:04,VALID,999.355,VALID,0,VALID,95.1871,VALID,0,VALID,22.9988,VALID,69,VALID,0.755859,
2012-05-18, 03:35:04,VALID,999.399,VALID,0,VALID,95.1871,VALID,0,VALID,23.0378,VALID,96,VALID,0.936328,
2012-05-18, 03:36:04,VALID,999.402,VALID,0,VALID,95.1871,VALID,0,VALID,23.0769,VALID,98,VALID,0.855078,
2012-05-18, 03:37:04,VALID,999.407,VALID,0,VALID,95.1414,VALID,0,VALID,23.1354,VALID,99,VALID,1.14648,
2012-05-18, 03:38:04,VALID,999.402,VALID,0,VALID,95.1185,VALID,0,VALID,23.1939,VALID,97,VALID,1.03086,
2012-05-18, 03:39:04,VALID,999.432,VALID,0,VALID,95.0269,VALID,0,VALID,23.2524,VALID,88,VALID,1.01914,
2012-05-18, 03:40:04,VALID,999.444,VALID,0,VALID,94.9277,VALID,0,VALID,23.2915,VALID,80,VALID,0.947266,
2012-05-18, 03:41:04,VALID,999.45,VALID,0,VALID,94.7599,VALID,0,VALID,23.2915,VALID,78,VALID,1.05859,
2012-05-18, 03:42:04,VALID,999.445,VALID,0,VALID,94.6149,VALID,0,VALID,23.2719,VALID,67,VALID,1.35586,
2012-05-18, 03:43:04,VALID,999.408,VALID,0,VALID,94.5234,VALID,0,VALID,23.2507,VALID,67,VALID,1.70078,
2012-05-18, 03:44:04,VALID,999.456,VALID,0,VALID,94.3937,VALID,0,VALID,23.2719,VALID,53,VALID,1.50508,
2012-05-18, 03:45:04,VALID,999.431,VALID,0,VALID,94.2945,VALID,0,VALID,23.2524,VALID,57,VALID,1.79531,
2012-05-18, 03:46:04,VALID,999.418,VALID,0,VALID,94.3403,VALID,0,VALID,23.2524,VALID,56,VALID,1.67734,
2012-05-18, 03:47:04,VALID,999.435,VALID,0,VALID,94.2792,VALID,0,VALID,23.2524,VALID,46,VALID,1.58672,